Wind_Speed
17 16 16 15 14 13 14 14 14 14 13 13 12 12 11 11 11 12 12 14 15 16 17 18 19 20 20 22 22 22 21 21 21 21 21 22 21 21 21 21 21 21 20
18 17 16 16 15 14 15 15 15 14 13 13 13 12 12 12 11 12 13 15 16 17 18 19 20 21 22 23 23 23 23 23 23 23 24 24 24 24 24 24 24 23 22
18 18 17 16 16 16 16 15 15 15 14 13 13 13 12 12 12 13 14 15 17 18 19 20 20 21 22 22 23 23 23 23 24 25 26 27 27 27 26 25 25 25 24
19 19 18 18 18 17 17 16 16 16 15 14 13 13 13 12 13 13 14 16 17 18 19 20 21 21 22 22 23 23 23 24 25 26 27 28 28 28 28 27 26 26 25
21 21 20 20 19 18 18 17 17 16 15 14 14 13 13 13 13 14 15 16 17 18 19 21 21 22 22 23 24 24 25 26 27 28 28 29 29 29 29 29 28 27 27
22 22 21 21 21 19 18 18 17 17 16 15 14 14 13 14 14 14 15 16 17 18 19 21 22 23 24 25 26 27 28 29 29 30 30 30 30 30 29 29 29 29 29
24 23 22 22 21 20 19 18 18 17 17 16 15 15 14 14 15 15 16 17 18 19 19 20 22 23 24 26 27 28 29 30 31 31 31 31 31 31 31 31 32 32 32
23 23 23 22 21 20 19 19 18 18 18 17 17 16 15 15 16 16 17 18 19 20 21 22 23 24 25 26 27 29 30 30 31 32 32 32 32 32 33 34 34 35 36
22 22 22 21 20 20 19 19 19 19 19 18 18 17 16 16 16 16 16 17 19 20 22 23 24 26 27 28 29 30 31 32 33 33 33 34 34 35 35 36 37 38 39
22 22 21 20 20 20 19 20 20 20 20 19 18 18 17 17 17 17 17 18 19 20 22 23 24 26 27 28 29 31 32 33 34 34 35 35 36 37 38 39 40 40 41
23 22 21 21 20 20 20 20 21 22 21 21 20 19 18 17 17 17 17 18 19 21 22 23 25 26 27 28 29 30 31 32 33 34 35 36 37 38 39 40 41 41 42
24 23 22 22 21 20 21 21 22 22 22 22 21 20 19 19 18 18 18 20 21 23 24 25 27 27 28 29 30 31 31 32 33 34 35 36 37 39 40 41 41 42 42
25 25 24 24 23 22 22 22 22 23 23 23 23 22 21 20 19 20 20 22 24 25 26 28 29 30 31 31 32 33 34 35 36 37 38 38 39 40 41 42 42 42 43
27 26 26 26 25 24 24 23 22 22 23 24 24 24 23 22 22 22 23 25 26 27 29 29 30 31 32 32 34 34 35 36 37 39 40 40 41 42 42 43 43 43 44
28 28 28 27 27 26 25 24 23 23 23 24 25 25 25 24 24 24 25 26 28 29 30 30 31 32 32 33 34 35 36 37 38 39 40 41 42 43 43 43 43 44 44
30 30 29 29 28 28 26 25 24 23 23 24 25 25 26 26 26 26 26 28 29 30 31 31 32 32 33 33 34 36 37 39 40 41 42 43 43 44 44 45 45 45 46
30 30 30 30 30 29 28 26 24 24 24 25 26 26 26 27 27 27 28 29 29 30 31 32 32 33 34 35 37 38 40 41 42 43 44 44 45 46 46 47 47 47 48
31 31 31 31 30 30 28 26 25 24 25 26 26 27 27 28 28 29 30 30 30 31 32 33 34 35 36 38 40 41 43 44 45 46 46 46 46 47 47 48 49 50 50
32 32 32 31 30 30 28 26 25 25 26 26 27 27 28 28 29 30 30 31 32 33 34 34 35 37 39 40 42 44 45 46 47 47 47 47 48 48 49 50 51 52 53
34 32 32 31 30 29 28 27 27 27 27 27 27 28 28 29 30 30 31 32 33 34 35 36 38 39 41 42 43 45 46 47 47 47 48 49 49 50 51 53 54 56 57
35 34 32 32 31 30 28 28 28 29 29 28 28 28 29 30 30 31 32 33 35 36 37 39 41 42 43 43 44 45 47 47 47 48 49 50 52 53 55 57 59 60 62
36 35 34 33 31 30 30 30 30 30 30 29 29 29 30 30 31 33 34 35 36 38 40 41 43 44 45 45 45 45 46 47 48 50 51 53 55 57 59 61 63 64 65
37 36 35 34 32 31 30 30 30 30 31 30 30 30 31 31 33 34 36 37 39 40 42 43 44 46 47 47 48 48 48 48 48 49 52 55 57 59 61 63 64 65 67
39 38 37 35 33 31 30 29 30 31 31 31 31 31 32 33 35 36 38 40 41 42 43 45 46 47 48 49 50 51 53 54 55 53 53 56 58 59 61 63 64 66 69
40 39 37 35 33 31 30 29 29 30 30 31 31 32 33 35 36 38 40 41 42 44 45 46 47 49 50 51 52 54 56 58 60 60 59 59 60 60 62 64 66 69 73
40 39 37 35 34 31 29 29 29 29 30 31 32 33 34 36 37 39 40 42 43 45 46 47 49 51 52 53 55 57 59 61 63 64 64 64 64 64 65 67 71 75 79
Wind_Direction
260 260 260 264 271 277 283 288 292 294 296 298 300 300 297 293 287 280 275 271 269 267 266 265 264 265 267 267 267 268 268 269 271 275 277 279 280 280 279 278 279 280 282
263 262 262 265 269 275 280 286 289 291 292 294 295 294 293 289 285 281 277 274 271 269 269 269 269 270 271 270 270 270 269 270 273 275 277 279 279 280 279 278 277 277 279
263 264 265 267 270 273 278 283 286 287 288 289 289 288 287 286 284 282 280 276 273 272 272 272 272 274 275 274 273 272 271 272 274 275 277 277 277 278 278 278 276 276 277
263 265 266 267 269 272 276 279 282 283 283 284 285 284 281 281 283 282 281 279 276 275 274 274 274 275 276 276 274 273 273 274 275 277 277 278 278 277 277 277 276 275 275
261 263 265 268 269 270 273 276 279 280 278 280 282 281 279 279 280 281 281 280 279 278 276 275 275 275 276 276 275 275 275 275 277 278 279 280 280 279 278 277 276 275 275
259 260 263 266 268 269 271 272 275 275 274 276 279 280 280 280 280 280 281 282 282 281 280 278 278 277 276 276 276 276 277 277 278 279 280 281 281 280 279 278 276 276 276
256 257 259 262 265 267 267 268 270 270 270 272 276 277 279 280 279 280 281 282 282 283 283 283 283 282 280 279 279 279 279 280 280 280 281 281 281 281 280 279 278 277 278
252 252 256 259 263 265 265 265 265 265 266 269 272 274 276 279 280 281 281 282 283 284 285 285 286 286 285 284 284 283 283 282 282 282 282 282 282 281 280 280 279 279 279
249 249 253 258 262 264 264 262 262 261 262 266 269 272 275 277 279 281 284 286 287 287 287 287 288 288 287 286 286 285 285 285 284 283 283 283 283 282 282 281 280 280 280
246 247 251 257 261 263 264 261 259 258 259 262 266 270 274 276 278 281 285 287 289 289 290 291 291 290 290 289 288 288 287 286 285 285 285 284 284 284 283 283 283 282 281
245 245 250 255 260 264 265 262 258 257 256 259 263 267 271 275 278 282 286 288 291 292 294 294 294 293 292 291 290 289 288 288 288 288 287 286 286 286 285 285 285 284 283
245 245 249 255 260 264 266 263 259 256 255 256 259 264 268 272 277 282 287 290 292 294 295 295 296 296 295 293 292 291 291 291 291 291 290 290 289 288 288 287 287 286 285
244 245 248 254 259 264 266 265 260 256 255 255 257 261 266 270 275 281 286 290 293 295 297 298 298 297 296 295 294 292 292 291 291 291 292 292 291 291 290 290 289 288 287
243 244 248 253 259 263 266 267 262 258 255 255 256 259 264 269 275 280 286 290 293 295 297 299 300 298 296 295 294 293 293 292 292 292 292 293 293 292 292 292 291 290 289
242 244 246 250 256 261 264 266 263 259 256 255 257 259 263 269 274 279 285 290 293 295 296 297 298 297 295 294 294 294 295 295 295 295 294 294 293 292 292 291 290 289 288
243 244 246 249 254 258 262 264 262 259 257 256 257 261 265 269 273 278 285 289 292 294 295 296 297 296 295 295 294 294 295 296 296 296 295 294 292 291 290 289 287 286 285
243 244 246 249 253 257 259 261 260 258 257 257 258 262 266 270 274 278 283 288 291 292 293 294 295 296 295 295 295 295 296 296 295 295 294 293 292 290 289 288 286 285 284
243 244 245 248 252 255 257 258 257 257 257 257 258 262 267 270 274 278 282 286 289 291 293 293 293 294 294 294 295 295 295 295 295 294 293 293 291 290 289 288 286 285 284
244 244 244 246 249 253 254 255 255 256 256 256 258 262 266 270 273 277 281 285 288 291 292 293 293 293 294 294 295 295 295 295 294 294 293 293 291 290 289 287 286 286 285
244 246 246 246 249 251 253 254 254 254 254 255 258 262 265 269 272 276 280 284 287 291 292 293 293 293 293 294 295 295 295 295 294 294 293 293 292 291 290 289 289 289 288
244 246 246 247 248 250 251 251 252 252 253 255 258 262 266 269 272 276 280 285 288 291 293 294 294 294 294 294 295 295 295 295 295 295 295 295 295 294 293 293 292 292 291
243 245 246 247 247 249 250 250 250 252 254 256 259 262 266 270 273 277 282 286 289 292 293 294 295 295 296 296 296 295 295 296 296 297 297 296 296 296 296 296 295 294 293
242 243 245 246 247 247 248 249 250 252 255 257 260 264 267 271 275 280 284 287 290 292 294 295 296 297 298 298 297 297 296 294 294 295 296 296 297 296 296 295 294 293 292
240 242 244 246 246 247 247 248 249 252 254 258 261 265 269 273 278 282 286 289 291 293 294 296 297 298 299 299 299 299 298 298 297 296 295 295 295 295 294 294 293 292 292
238 241 243 245 246 246 247 249 251 253 256 259 263 267 271 276 280 284 287 290 292 294 296 298 299 299 300 300 300 300 300 300 300 299 298 297 296 296 295 294 293 293 292
236 239 242 244 244 246 247 249 251 254 257 260 265 269 273 277 281 285 288 291 294 296 298 299 300 300 301 301 301 301 301 301 300 300 299 298 297 296 295 295 295 295 295
Height
5847 5848 5848 5849 5849 5850 5850 5850 5850 5850 5850 5850 5850 5850 5850 5850 5850 5850 5850 5851 5851 5851 5851 5852 5852 5852 5852 5852 5852 5852 5853 5853 5852 5852 5851 5851 5851 5850 5850 5849 5849 5848 5847
5845 5845 5846 5846 5846 5847 5847 5847 5847 5847 5847 5847 5847 5847 5847 5847 5847 5848 5848 5848 5849 5849 5849 5849 5849 5849 5849 5849 5849 5849 5850 5850 5849 5849 5848 5848 5847 5847 5847 5846 5846 5845 5844
5841 5842 5843 5843 5844 5844 5844 5845 5844 5844 5844 5844 5844 5844 5844 5844 5845 5845 5845 5845 5846 5846 5846 5847 5847 5846 5846 5846 5846 5846 5846 5846 5846 5845 5845 5844 5844 5843 5843 5842 5842 5841 5841
5838 5839 5839 5840 5841 5841 5841 5842 5842 5842 5841 5841 5841 5841 5842 5842 5842 5842 5842 5843 5843 5843 5844 5844 5844 5843 5843 5843 5843 5843 5843 5842 5842 5841 5841 5840 5839 5839 5838 5838 5837 5837 5836
5834 5835 5836 5837 5837 5838 5838 5838 5838 5838 5838 5838 5838 5838 5839 5839 5839 5839 5840 5840 5840 5840 5840 5840 5840 5839 5839 5839 5839 5838 5838 5838 5837 5837 5836 5835 5835 5834 5833 5833 5833 5832 5831
5831 5832 5832 5833 5834 5834 5835 5835 5835 5835 5835 5835 5835 5836 5836 5836 5836 5836 5836 5836 5836 5836 5836 5836 5836 5835 5835 5834 5834 5834 5833 5833 5833 5832 5831 5830 5830 5829 5828 5828 5828 5827 5826
5826 5828 5828 5829 5830 5830 5831 5831 5831 5832 5832 5832 5832 5833 5833 5833 5833 5833 5833 5833 5833 5833 5832 5832 5831 5831 5830 5830 5830 5829 5829 5828 5827 5827 5826 5825 5825 5824 5823 5823 5822 5821 5821
5822 5824 5824 5825 5826 5826 5827 5827 5828 5828 5828 5829 5829 5829 5830 5830 5830 5830 5830 5829 5829 5829 5828 5828 5827 5827 5826 5825 5825 5824 5823 5823 5822 5821 5821 5820 5819 5818 5818 5817 5816 5815 5815
5819 5820 5820 5821 5822 5822 5823 5823 5824 5824 5825 5825 5826 5826 5826 5827 5827 5826 5826 5826 5825 5825 5824 5824 5823 5822 5822 5821 5820 5819 5818 5817 5817 5816 5815 5814 5813 5812 5811 5810 5809 5808 5807
5815 5816 5817 5817 5818 5818 5819 5819 5820 5820 5821 5822 5822 5823 5823 5823 5823 5823 5823 5822 5822 5821 5820 5820 5819 5818 5817 5816 5815 5814 5813 5812 5811 5810 5809 5808 5807 5806 5804 5803 5802 5801 5800
5811 5812 5813 5813 5814 5814 5815 5815 5816 5816 5817 5818 5818 5819 5819 5820 5820 5819 5819 5818 5818 5817 5816 5816 5814 5813 5812 5811 5809 5808 5807 5806 5805 5804 5803 5801 5800 5798 5797 5796 5794 5793 5791
5806 5807 5809 5809 5810 5810 5811 5811 5811 5812 5813 5814 5814 5815 5815 5816 5816 5815 5815 5814 5814 5813 5812 5811 5810 5808 5807 5805 5804 5803 5801 5800 5799 5797 5796 5794 5793 5791 5789 5788 5786 5784 5783
5801 5803 5804 5805 5805 5806 5806 5807 5807 5808 5809 5809 5810 5811 5811 5812 5812 5811 5811 5810 5809 5808 5807 5806 5804 5803 5801 5800 5798 5797 5795 5794 5792 5791 5789 5787 5785 5783 5781 5779 5777 5775 5773
5796 5797 5799 5800 5801 5801 5802 5802 5803 5803 5804 5805 5806 5806 5807 5807 5807 5807 5806 5806 5805 5803 5802 5800 5799 5797 5795 5794 5792 5790 5789 5787 5785 5783 5781 5779 5776 5774 5772 5770 5767 5765 5763
5790 5791 5793 5794 5795 5796 5797 5797 5798 5799 5800 5800 5801 5801 5802 5802 5802 5802 5801 5800 5799 5798 5796 5795 5793 5791 5789 5787 5785 5783 5782 5780 5777 5775 5772 5770 5768 5765 5763 5761 5758 5756 5754
5784 5785 5787 5788 5789 5790 5791 5792 5793 5794 5795 5795 5796 5796 5797 5797 5797 5797 5796 5795 5794 5792 5791 5789 5787 5785 5783 5781 5778 5776 5774 5772 5769 5767 5764 5761 5759 5756 5754 5751 5749 5746 5744
5778 5779 5780 5782 5783 5784 5785 5786 5787 5788 5789 5790 5791 5791 5791 5792 5792 5791 5791 5790 5788 5786 5785 5783 5781 5779 5777 5774 5771 5768 5766 5764 5761 5758 5755 5752 5749 5746 5743 5741 5738 5736 5733
5772 5773 5774 5776 5777 5778 5779 5781 5782 5783 5784 5784 5785 5785 5786 5786 5786 5785 5785 5783 5782 5780 5779 5777 5775 5773 5770 5767 5764 5760 5758 5755 5752 5748 5745 5742 5739 5736 5733 5730 5727 5724 5721
5765 5766 5768 5770 5771 5772 5774 5775 5776 5777 5778 5778 5779 5779 5780 5780 5780 5779 5778 5777 5776 5774 5772 5770 5768 5765 5762 5759 5755 5752 5748 5745 5742 5738 5735 5732 5728 5725 5721 5718 5715 5711 5708
5758 5760 5761 5763 5765 5766 5768 5769 5770 5771 5772 5772 5773 5773 5774 5773 5773 5773 5772 5770 5769 5767 5765 5762 5760 5757 5754 5751 5747 5743 5739 5735 5732 5728 5725 5720 5716 5713 5709 5705 5701 5697 5693
5750 5752 5754 5756 5758 5760 5762 5763 5764 5764 5765 5766 5767 5767 5767 5767 5766 5766 5765 5763 5762 5760 5757 5754 5751 5748 5745 5742 5738 5734 5729 5725 5721 5717 5713 5708 5704 5699 5695 5690 5686 5681 5677
5742 5745 5747 5749 5751 5754 5755 5757 5758 5758 5759 5760 5761 5761 5761 5760 5760 5759 5757 5756 5754 5751 5748 5745 5742 5738 5735 5731 5728 5724 5720 5717 5711 5706 5701 5696 5691 5686 5680 5674 5669 5664 5659
5734 5737 5739 5742 5744 5747 5749 5750 5751 5752 5753 5754 5754 5754 5754 5753 5752 5751 5750 5748 5745 5742 5739 5736 5732 5728 5723 5719 5716 5712 5708 5706 5703 5699 5692 5685 5679 5672 5666 5660 5653 5647 5641
5726 5729 5732 5735 5737 5740 5742 5744 5745 5746 5747 5747 5748 5747 5747 5746 5745 5743 5742 5739 5736 5733 5729 5725 5721 5717 5712 5708 5703 5698 5694 5689 5686 5685 5682 5674 5667 5660 5653 5646 5638 5631 5624
5717 5721 5725 5728 5730 5733 5735 5737 5738 5739 5740 5740 5740 5740 5740 5739 5737 5735 5733 5730 5727 5723 5719 5715 5710 5705 5701 5696 5691 5685 5680 5674 5668 5664 5663 5660 5653 5645 5637 5630 5621 5613 5605
5709 5713 5717 5721 5723 5726 5728 5730 5731 5732 5733 5733 5733 5733 5732 5731 5729 5727 5724 5721 5717 5713 5709 5704 5699 5694 5688 5683 5677 5671 5666 5660 5653 5647 5643 5640 5635 5630 5621 5612 5602 5592 5582